Home   Weather   Pittsburgh   Past weeks
Flag for USA

Past Weather in Pittsburgh, Pennsylvania, USA — Yesterday and Last 2 Weeks

Now
84 °F

Scattered clouds.


Feels Like: 92 °F
Forecast: 93 / 76 °F
Wind: 13 mph from Southwest

Location: Allegheny County Airport

Current Time: Jul 20, 2019 at 12:08:45 pm

Latest Report: Jul 20, 2019 at 10:53 am


Visibility: 10 mi

Pressure: 29.94 "Hg

Humidity: 74%

Dew Point: 75 °F

Location of PittsburghLocation

Past Weather in Pittsburgh — Graph

°F

Pittsburgh Temperature Yesterday

Maximum temperature yesterday: 87 °F (at 4:53 pm)
Minimum temperature yesterday: 72 °F (at 4:53 am)
Average temperature yesterday: 79 °F

High & Low Weather Summary for the Past Weeks

 TemperatureHumidityPressure
High89 °F (Jul 6, 2:53 pm)100% (Jul 6, 5:00 pm)30.16 "Hg (Jul 6, 5:00 pm)
Low62 °F (Jul 13, 6:10 am)42% (Jul 15, 2:53 pm)29.80 "Hg (Jul 11, 7:53 pm)
Average75 °F81%29.98 "Hg
* Reported Jul 5 10:53 am — Jul 20 10:53 am, Pittsburgh. Weather by CustomWeather, © 2019

Note: Actual official high and low records may vary slightly from our data, if they occured in-between our weather recording intervals... More about our weather records

Advertising

Pittsburgh Weather History for the Previous 24 Hours

Scroll right to see more
 ConditionsComfort  
Time TempWeatherWind HumidityBarometerVisibility
10:53 am
Sat, Jul 20
84 °FScattered clouds.13 mph74%29.94 "Hg10 mi
10:16 am82 °FScattered clouds.No wind79%29.99 "Hg10 mi
9:39 am80 °FPartly sunny.7 mph81%30.03 "Hg10 mi
8:53 am80 °FSunny.9 mph81%30.01 "Hg10 mi
7:53 am78 °FSunny.9 mph87%29.97 "Hg8 mi
6:53 am76 °FFog.3 mph94%29.96 "Hg6 mi
5:53 am76 °FClear.7 mph94%29.96 "Hg8 mi
4:53 am77 °FClear.No wind90%29.98 "Hg8 mi
3:53 am77 °FClear.6 mph90%29.97 "Hg8 mi
2:53 am78 °FClear.6 mph87%29.96 "Hg8 mi
1:53 am77 °FClear.3 mph90%29.97 "Hg8 mi
12:53 am78 °FClear.7 mph87%29.97 "Hg8 mi
11:53 pm
Fri, Jul 19
79 °FClear.7 mph84%29.97 "Hg9 mi
10:53 pm79 °FClear.7 mph84%29.97 "Hg10 mi
9:53 pm81 °FClear.6 mph79%29.97 "Hg10 mi
8:53 pm83 °FClear.6 mph74%29.95 "Hg10 mi
7:53 pm86 °FSunny.10 mph65%29.94 "Hg10 mi
6:53 pm87 °FSunny.14 mph63%29.94 "Hg10 mi
5:53 pm87 °FSunny.10 mph63%29.94 "Hg10 mi
4:53 pm87 °FBroken clouds.13 mph65%29.96 "Hg10 mi
3:53 pm86 °FScattered clouds.10 mph70%29.97 "Hg10 mi
2:53 pm85 °FScattered clouds.9 mph72%29.98 "Hg10 mi
1:53 pm83 °FMore clouds than sun.13 mph72%29.98 "Hg10 mi
12:53 pm81 °FMostly cloudy.9 mph79%29.97 "Hg9 mi
Weather by CustomWeather, © 2019

See weather overview